Time,TemperatureF,DewpointF,PressureIn,WindDirection,WindDirectionDegrees,WindSpeedMPH,WindSpeedGustMPH,Humidity,HourlyPrecipIn,Conditions,Clouds,dailyrainin,SoftwareType,DateUTC
2013-08-31 00:00:00,67.1,37.8,17.72,NNE,23,0.0,0.0,34,0.00,,---,0.00,VWS V14.01,2013-08-31 04:00:00,
2013-08-31 00:01:00,67.1,37.8,17.72,NNE,23,0.0,0.0,34,0.00,,---,0.00,VWS V14.01,2013-08-31 04:01:00,
2013-08-31 00:06:00,67.1,37.8,17.72,NNE,23,0.0,0.0,34,0.00,,---,0.00,VWS V14.01,2013-08-31 04:06:00,
2013-08-31 00:11:00,66.9,37.7,17.72,NNE,23,0.0,0.0,34,0.00,,---,0.00,VWS V14.01,2013-08-31 04:11:00,
2013-08-31 00:16:00,66.7,37.5,17.72,NNE,23,0.0,0.0,34,0.00,,---,0.00,VWS V14.01,2013-08-31 04:16:00,
2013-08-31 00:21:00,66.7,37.5,17.72,NNE,23,0.0,0.0,34,0.00,,---,0.00,VWS V14.01,2013-08-31 04:21:00,
2013-08-31 00:26:00,66.9,37.7,17.72,NNE,23,0.0,0.0,34,0.00,,---,0.00,VWS V14.01,2013-08-31 04:26:00,
2013-08-31 00:31:00,66.7,37.5,17.72,NNE,23,0.0,0.0,34,0.00,,---,0.00,VWS V14.01,2013-08-31 04:31:00,
2013-08-31 00:36:00,66.7,37.5,17.72,NNE,23,0.0,0.0,34,0.00,,---,0.00,VWS V14.01,2013-08-31 04:36:00,
2013-08-31 00:41:00,66.6,37.3,17.72,NNE,23,0.0,0.0,34,0.00,,---,0.00,VWS V14.01,2013-08-31 04:41:00,
2013-08-31 00:46:00,66.7,37.5,17.72,NNE,23,0.0,0.0,34,0.00,,---,0.00,VWS V14.01,2013-08-31 04:46:00,
2013-08-31 00:51:00,66.6,37.3,17.72,NNE,23,0.0,0.0,34,0.00,,---,0.00,VWS V14.01,2013-08-31 04:51:00,
2013-08-31 00:56:00,66.6,37.3,17.72,NNE,23,0.0,0.0,34,0.00,,---,0.00,VWS V14.01,2013-08-31 04:56:00,
2013-08-31 01:01:00,66.6,37.3,17.72,NNE,23,0.0,0.0,34,0.00,,---,0.00,VWS V14.01,2013-08-31 05:01:00,
2013-08-31 01:06:00,66.4,37.2,17.72,NNE,23,0.0,0.0,34,0.00,,---,0.00,VWS V14.01,2013-08-31 05:06:00,
2013-08-31 01:11:00,66.4,37.2,17.72,NNE,23,0.0,0.0,34,0.00,,---,0.00,VWS V14.01,2013-08-31 05:11:00,
2013-08-31 01:16:00,66.4,37.2,17.72,NNE,23,0.0,0.0,34,0.00,,---,0.00,VWS V14.01,2013-08-31 05:16:00,
2013-08-31 01:21:00,66.4,37.2,17.72,NNE,23,0.0,0.0,34,0.00,,---,0.00,VWS V14.01,2013-08-31 05:21:00,
2013-08-31 01:26:00,66.4,37.2,17.72,NNE,23,0.0,0.0,34,0.00,,---,0.00,VWS V14.01,2013-08-31 05:26:00,
2013-08-31 01:31:00,66.4,37.2,17.72,NNE,23,0.0,0.0,34,0.00,,---,0.00,VWS V14.01,2013-08-31 05:31:00,
2013-08-31 01:36:00,66.4,37.2,17.72,NNE,23,0.0,0.0,34,0.00,,---,0.00,VWS V14.01,2013-08-31 05:36:00,
2013-08-31 01:41:00,66.2,37.0,17.72,NNE,23,0.0,0.0,34,0.00,,---,0.00,VWS V14.01,2013-08-31 05:41:00,
2013-08-31 01:46:00,66.2,37.0,17.72,NNE,23,0.0,0.0,34,0.00,,---,0.00,VWS V14.01,2013-08-31 05:46:00,
2013-08-31 01:51:00,66.0,36.9,17.72,NNE,23,0.0,0.0,34,0.00,,---,0.00,VWS V14.01,2013-08-31 05:51:00,
2013-08-31 01:56:00,66.0,36.9,17.72,NNE,23,0.0,0.0,34,0.00,,---,0.00,VWS V14.01,2013-08-31 05:56:00,
2013-08-31 02:01:00,66.0,36.9,17.72,NNE,23,0.0,0.0,34,0.00,,---,0.00,VWS V14.01,2013-08-31 06:01:00,
2013-08-31 02:06:00,66.0,36.9,17.72,NNE,23,0.0,0.0,34,0.00,,---,0.00,VWS V14.01,2013-08-31 06:06:00,
2013-08-31 02:11:00,66.2,37.0,17.72,NNE,23,0.0,0.0,34,0.00,,---,0.00,VWS V14.01,2013-08-31 06:11:00,
2013-08-31 02:16:00,66.2,37.0,17.72,NNE,23,0.0,0.0,34,0.00,,---,0.00,VWS V14.01,2013-08-31 06:16:00,
2013-08-31 02:21:00,66.0,36.9,17.72,NNE,23,0.0,0.0,34,0.00,,---,0.00,VWS V14.01,2013-08-31 06:21:00,
2013-08-31 02:26:00,66.0,36.9,17.72,NNE,23,0.0,0.0,34,0.00,,---,0.00,VWS V14.01,2013-08-31 06:26:00,
2013-08-31 02:31:00,66.0,36.9,17.72,NNE,23,0.0,0.0,34,0.00,,---,0.00,VWS V14.01,2013-08-31 06:31:00,
2013-08-31 02:36:00,66.0,36.9,17.72,NNE,23,0.0,0.0,34,0.00,,---,0.00,VWS V14.01,2013-08-31 06:36:00,
2013-08-31 02:41:00,66.0,36.9,17.72,NNE,23,0.0,0.0,34,0.00,,---,0.00,VWS V14.01,2013-08-31 06:41:00,
2013-08-31 02:46:00,66.0,36.9,17.72,NNE,23,0.0,0.0,34,0.00,,---,0.00,VWS V14.01,2013-08-31 06:46:00,
2013-08-31 02:51:00,65.8,36.7,17.72,NNE,23,0.0,0.0,34,0.00,,---,0.00,VWS V14.01,2013-08-31 06:51:00,
2013-08-31 02:56:00,65.8,36.7,17.72,NNE,23,0.0,0.0,34,0.00,,---,0.00,VWS V14.01,2013-08-31 06:56:00,
2013-08-31 03:01:00,65.8,36.7,17.72,NNE,23,0.0,0.0,34,0.00,,---,0.00,VWS V14.01,2013-08-31 07:01:00,
2013-08-31 03:06:00,65.8,36.7,17.72,NNE,23,0.0,0.0,34,0.00,,---,0.00,VWS V14.01,2013-08-31 07:06:00,
2013-08-31 03:11:00,65.7,36.6,17.72,NNE,23,0.0,0.0,34,0.00,,---,0.00,VWS V14.01,2013-08-31 07:11:00,
2013-08-31 03:16:00,65.7,36.6,17.72,NNE,23,0.0,0.0,34,0.00,,---,0.00,VWS V14.01,2013-08-31 07:16:00,
2013-08-31 03:21:00,65.7,36.6,17.72,NNE,23,0.0,0.0,34,0.00,,---,0.00,VWS V14.01,2013-08-31 07:21:00,
2013-08-31 03:26:00,65.7,36.6,17.72,NNE,23,0.0,0.0,34,0.00,,---,0.00,VWS V14.01,2013-08-31 07:26:00,
2013-08-31 03:31:00,65.7,36.6,17.72,NNE,23,0.0,0.0,34,0.00,,---,0.00,VWS V14.01,2013-08-31 07:31:00,
2013-08-31 03:36:00,65.7,36.6,17.72,NNE,23,0.0,0.0,34,0.00,,---,0.00,VWS V14.01,2013-08-31 07:36:00,
2013-08-31 03:41:00,65.8,36.7,17.72,NNE,23,0.0,0.0,34,0.00,,---,0.00,VWS V14.01,2013-08-31 07:41:00,
2013-08-31 03:46:00,65.8,36.7,17.72,NNE,23,0.0,0.0,34,0.00,,---,0.00,VWS V14.01,2013-08-31 07:46:00,
2013-08-31 03:51:00,65.7,36.6,17.72,NNE,23,0.0,0.0,34,0.00,,---,0.00,VWS V14.01,2013-08-31 07:51:00,
2013-08-31 03:56:00,65.8,36.7,17.72,NNE,23,0.0,0.0,34,0.00,,---,0.00,VWS V14.01,2013-08-31 07:56:00,
2013-08-31 04:01:00,65.8,36.7,17.72,NNE,23,0.0,0.0,34,0.00,,---,0.00,VWS V14.01,2013-08-31 08:01:00,
2013-08-31 04:06:00,66.0,37.6,17.72,NNE,23,0.0,0.0,35,0.00,,---,0.00,VWS V14.01,2013-08-31 08:06:00,
2013-08-31 04:11:00,66.2,37.0,17.72,NNE,23,0.0,0.0,34,0.00,,---,0.00,VWS V14.01,2013-08-31 08:11:00,
2013-08-31 04:16:00,66.2,37.0,17.72,NNE,23,0.0,0.0,34,0.00,,---,0.00,VWS V14.01,2013-08-31 08:16:00,
2013-08-31 04:21:00,66.2,37.0,17.72,NNE,23,0.0,0.0,34,0.00,,---,0.00,VWS V14.01,2013-08-31 08:21:00,
2013-08-31 04:26:00,66.4,37.2,17.72,NNE,23,0.0,0.0,34,0.00,,---,0.00,VWS V14.01,2013-08-31 08:26:00,
2013-08-31 04:31:00,66.4,37.2,17.72,NNE,23,0.0,0.0,34,0.00,,---,0.00,VWS V14.01,2013-08-31 08:31:00,
2013-08-31 04:36:00,66.4,37.2,17.72,NNE,23,0.0,0.0,34,0.00,,---,0.00,VWS V14.01,2013-08-31 08:36:00,
2013-08-31 04:41:00,66.4,37.2,17.72,NNE,23,0.0,0.0,34,0.00,,---,0.00,VWS V14.01,2013-08-31 08:41:00,
2013-08-31 04:46:00,66.6,37.3,17.72,NNE,23,0.0,0.0,34,0.00,,---,0.00,VWS V14.01,2013-08-31 08:46:00,
2013-08-31 04:51:00,66.6,37.3,17.72,NNE,23,0.0,0.0,34,0.00,,---,0.00,VWS V14.01,2013-08-31 08:51:00,
2013-08-31 04:56:00,66.4,37.2,17.72,NNE,23,0.0,0.0,34,0.00,,---,0.00,VWS V14.01,2013-08-31 08:56:00,
2013-08-31 05:01:00,66.4,37.2,17.72,NNE,23,0.0,0.0,34,0.00,,---,0.00,VWS V14.01,2013-08-31 09:01:00,
2013-08-31 05:06:00,66.4,37.2,17.72,NNE,23,0.0,0.0,34,0.00,,---,0.00,VWS V14.01,2013-08-31 09:06:00,
2013-08-31 05:11:00,66.4,37.2,17.72,NNE,23,0.0,0.0,34,0.00,,---,0.00,VWS V14.01,2013-08-31 09:11:00,
2013-08-31 05:16:00,66.4,37.2,17.72,NNE,23,0.0,0.0,34,0.00,,---,0.00,VWS V14.01,2013-08-31 09:16:00,
2013-08-31 05:21:00,66.4,37.2,17.72,NNE,23,0.0,0.0,34,0.00,,---,0.00,VWS V14.01,2013-08-31 09:21:00,
2013-08-31 05:26:00,66.2,37.0,17.72,NNE,23,0.0,0.0,34,0.00,,---,0.00,VWS V14.01,2013-08-31 09:26:00,
2013-08-31 05:31:00,66.0,37.6,17.72,NNE,23,0.0,0.0,35,0.00,,---,0.00,VWS V14.01,2013-08-31 09:31:00,
2013-08-31 05:36:00,66.2,37.0,17.72,NNE,23,0.0,0.0,34,0.00,,---,0.00,VWS V14.01,2013-08-31 09:36:00,
2013-08-31 05:41:00,66.2,37.0,17.72,NNE,23,0.0,0.0,34,0.00,,---,0.00,VWS V14.01,2013-08-31 09:41:00,
2013-08-31 05:46:00,66.0,37.6,17.72,NNE,23,0.0,0.0,35,0.00,,---,0.00,VWS V14.01,2013-08-31 09:46:00,
2013-08-31 05:51:00,66.0,37.6,17.72,NNE,23,0.0,0.0,35,0.00,,---,0.00,VWS V14.01,2013-08-31 09:51:00,
2013-08-31 05:56:00,66.2,37.0,17.72,NNE,23,0.0,0.0,34,0.00,,---,0.00,VWS V14.01,2013-08-31 09:56:00,
2013-08-31 06:01:00,66.4,37.9,17.72,NNE,23,0.0,0.0,35,0.00,,---,0.00,VWS V14.01,2013-08-31 10:01:00,
2013-08-31 06:06:00,66.4,37.9,17.72,NNE,23,0.0,0.0,35,0.00,,---,0.00,VWS V14.01,2013-08-31 10:06:00,
2013-08-31 06:11:00,66.6,38.1,17.72,NNE,23,0.0,0.0,35,0.00,,---,0.00,VWS V14.01,2013-08-31 10:11:00,
2013-08-31 06:16:00,66.6,38.1,17.72,NNE,23,0.0,0.0,35,0.00,,---,0.00,VWS V14.01,2013-08-31 10:16:00,
2013-08-31 06:21:00,66.7,38.2,17.72,NNE,23,0.0,0.0,35,0.00,,---,0.00,VWS V14.01,2013-08-31 10:21:00,
2013-08-31 06:26:00,66.7,38.2,17.72,NNE,23,0.0,0.0,35,0.00,,---,0.00,VWS V14.01,2013-08-31 10:26:00,
2013-08-31 06:31:00,66.9,38.4,17.72,NNE,23,0.0,0.0,35,0.00,,---,0.00,VWS V14.01,2013-08-31 10:31:00,
2013-08-31 06:36:00,66.9,38.4,17.72,North,357,0.0,0.0,35,0.00,,---,0.00,VWS V14.01,2013-08-31 10:36:00,
2013-08-31 06:41:00,66.9,38.4,17.72,North,357,0.0,0.0,35,0.00,,---,0.00,VWS V14.01,2013-08-31 10:41:00,
2013-08-31 06:46:00,66.9,38.4,17.72,North,357,0.0,0.0,35,0.00,,---,0.00,VWS V14.01,2013-08-31 10:46:00,
2013-08-31 06:51:00,66.7,38.2,17.72,North,357,0.0,0.0,35,0.00,,---,0.00,VWS V14.01,2013-08-31 10:51:00,
2013-08-31 06:56:00,66.7,38.2,17.72,North,357,0.0,0.0,35,0.00,,---,0.00,VWS V14.01,2013-08-31 10:56:00,
2013-08-31 07:01:00,66.7,38.2,17.72,North,357,0.0,0.0,35,0.00,,---,0.00,VWS V14.01,2013-08-31 11:01:00,
2013-08-31 07:06:00,66.9,38.4,17.72,North,357,0.0,0.0,35,0.00,,---,0.00,VWS V14.01,2013-08-31 11:06:00,
2013-08-31 07:11:00,66.9,38.4,17.72,North,357,0.0,0.0,35,0.00,,---,0.00,VWS V14.01,2013-08-31 11:11:00,
2013-08-31 07:16:00,66.9,38.4,17.72,North,357,0.0,0.0,35,0.00,,---,0.00,VWS V14.01,2013-08-31 11:16:00,
2013-08-31 07:21:00,67.1,38.6,17.72,North,357,0.0,0.0,35,0.00,,---,0.00,VWS V14.01,2013-08-31 11:21:00,
2013-08-31 07:26:00,67.1,38.6,17.72,North,357,0.0,0.0,35,0.00,,---,0.00,VWS V14.01,2013-08-31 11:26:00,
2013-08-31 07:31:00,67.1,39.3,17.72,North,357,0.0,0.0,36,0.00,,---,0.00,VWS V14.01,2013-08-31 11:31:00,
2013-08-31 07:36:00,67.3,39.4,17.72,North,357,0.0,0.0,36,0.00,,---,0.00,VWS V14.01,2013-08-31 11:36:00,
2013-08-31 07:41:00,67.3,39.4,17.72,North,357,0.0,0.0,36,0.00,,---,0.00,VWS V14.01,2013-08-31 11:41:00,
2013-08-31 07:46:00,67.5,40.3,17.72,ENE,68,0.0,0.0,37,0.00,,---,0.00,VWS V14.01,2013-08-31 11:46:00,
2013-08-31 07:51:00,67.5,40.3,17.72,SSE,151,3.1,3.1,37,0.00,,---,0.00,VWS V14.01,2013-08-31 11:51:00,
2013-08-31 07:56:00,67.6,40.5,17.72,WSW,244,0.0,0.0,37,0.00,,---,0.00,VWS V14.01,2013-08-31 11:56:00,
2013-08-31 08:01:00,67.8,41.3,17.72,SSW,199,0.0,0.0,38,0.00,,---,0.00,VWS V14.01,2013-08-31 12:01:00,
2013-08-31 08:06:00,68.0,40.8,17.72,SSW,199,0.0,0.0,37,0.00,,---,0.00,VWS V14.01,2013-08-31 12:06:00,
2013-08-31 08:11:00,68.2,40.9,17.72,WNW,292,0.0,0.0,37,0.00,,---,0.00,VWS V14.01,2013-08-31 12:11:00,
2013-08-31 08:16:00,68.5,41.3,17.72,SSE,165,0.0,0.0,37,0.00,,---,0.00,VWS V14.01,2013-08-31 12:16:00,
2013-08-31 08:21:00,68.7,41.4,17.72,SW,218,0.0,0.0,37,0.00,,---,0.00,VWS V14.01,2013-08-31 12:21:00,
2013-08-31 08:26:00,68.9,41.6,17.72,SW,218,0.0,0.0,37,0.00,,---,0.00,VWS V14.01,2013-08-31 12:26:00,
2013-08-31 08:31:00,69.1,41.0,17.72,SSW,213,0.0,0.0,36,0.00,,---,0.00,VWS V14.01,2013-08-31 12:31:00,
2013-08-31 08:36:00,69.3,41.2,17.72,SW,214,0.0,0.0,36,0.00,,---,0.00,VWS V14.01,2013-08-31 12:36:00,
2013-08-31 08:41:00,69.4,40.6,17.72,SSW,209,0.0,0.0,35,0.00,,---,0.00,VWS V14.01,2013-08-31 12:41:00,
2013-08-31 08:46:00,69.4,40.6,17.72,SSW,208,0.0,0.0,35,0.00,,---,0.00,VWS V14.01,2013-08-31 12:46:00,
2013-08-31 08:51:00,69.4,39.9,17.72,SSW,209,0.0,0.0,34,0.00,,---,0.00,VWS V14.01,2013-08-31 12:51:00,
2013-08-31 08:56:00,69.4,39.9,17.72,SSW,209,0.0,0.0,34,0.00,,---,0.00,VWS V14.01,2013-08-31 12:56:00,
2013-08-31 09:01:00,69.6,40.0,17.72,SSW,202,0.0,0.0,34,0.00,,---,0.00,VWS V14.01,2013-08-31 13:01:00,
2013-08-31 09:06:00,69.4,39.1,17.72,NNE,25,0.0,0.0,33,0.00,,---,0.00,VWS V14.01,2013-08-31 13:06:00,
2013-08-31 09:11:00,69.8,39.4,17.72,NE,35,0.0,0.0,33,0.00,,---,0.00,VWS V14.01,2013-08-31 13:11:00,
2013-08-31 09:16:00,70.0,39.6,17.72,NE,39,0.0,0.0,33,0.00,,---,0.00,VWS V14.01,2013-08-31 13:16:00,
2013-08-31 09:21:00,70.0,39.6,17.72,NW,314,0.0,0.0,33,0.00,,---,0.00,VWS V14.01,2013-08-31 13:21:00,
2013-08-31 09:26:00,70.2,39.7,17.72,South,185,0.0,0.0,33,0.00,,---,0.00,VWS V14.01,2013-08-31 13:26:00,
2013-08-31 09:31:00,70.5,40.1,17.72,South,185,0.0,0.0,33,0.00,,---,0.00,VWS V14.01,2013-08-31 13:31:00,
2013-08-31 09:36:00,70.7,40.2,17.72,West,264,0.0,0.0,33,0.00,,---,0.00,VWS V14.01,2013-08-31 13:36:00,
2013-08-31 09:41:00,70.9,40.4,17.72,NNE,22,0.0,0.0,33,0.00,,---,0.00,VWS V14.01,2013-08-31 13:41:00,
2013-08-31 09:46:00,71.4,40.8,17.72,SW,228,3.1,3.1,33,0.00,,---,0.00,VWS V14.01,2013-08-31 13:46:00,
2013-08-31 09:51:00,71.8,40.4,17.72,East,89,2.7,4.9,32,0.00,,---,0.00,VWS V14.01,2013-08-31 13:51:00,
2013-08-31 09:56:00,72.3,40.8,17.72,SSE,151,2.2,2.2,32,0.00,,---,0.00,VWS V14.01,2013-08-31 13:56:00,
2013-08-31 10:01:00,73.0,41.5,17.72,SW,226,0.0,0.0,32,0.00,,---,0.00,VWS V14.01,2013-08-31 14:01:00,
2013-08-31 10:06:00,73.2,41.6,17.72,WSW,253,0.0,0.0,32,0.00,,---,0.00,VWS V14.01,2013-08-31 14:06:00,
2013-08-31 10:11:00,73.2,41.6,17.72,SW,222,0.0,0.0,32,0.00,,---,0.00,VWS V14.01,2013-08-31 14:11:00,
2013-08-31 10:16:00,73.2,41.6,17.72,NNE,24,3.1,3.1,32,0.00,,---,0.00,VWS V14.01,2013-08-31 14:16:00,
2013-08-31 10:21:00,73.2,41.6,17.72,North,2,0.0,0.0,32,0.00,,---,0.00,VWS V14.01,2013-08-31 14:21:00,
2013-08-31 10:26:00,73.6,41.9,17.72,NNW,344,0.0,0.0,32,0.00,,---,0.00,VWS V14.01,2013-08-31 14:26:00,
2013-08-31 10:31:00,74.3,42.6,17.72,SSE,148,0.0,0.0,32,0.00,,---,0.00,VWS V14.01,2013-08-31 14:31:00,
2013-08-31 10:36:00,74.7,42.9,17.72,SW,222,0.0,0.0,32,0.00,,---,0.00,VWS V14.01,2013-08-31 14:36:00,
2013-08-31 10:41:00,75.0,43.2,17.72,NNW,334,0.0,0.0,32,0.00,,---,0.00,VWS V14.01,2013-08-31 14:41:00,
2013-08-31 10:46:00,76.1,43.3,17.72,SSE,159,0.0,0.0,31,0.00,,---,0.00,VWS V14.01,2013-08-31 14:46:00,
2013-08-31 10:50:00,76.6,43.8,17.72,NNE,23,2.7,2.7,31,0.00,,---,0.00,VWS V14.01,2013-08-31 14:50:00,
2013-08-31 10:55:00,76.5,43.6,17.72,SW,221,3.6,3.6,31,0.00,,---,0.00,VWS V14.01,2013-08-31 14:55:00,
2013-08-31 11:00:00,76.5,43.6,17.72,North,0,0.0,0.0,31,0.00,,---,0.00,VWS V14.01,2013-08-31 15:00:00,
2013-08-31 11:05:00,76.1,43.3,17.72,NNE,23,3.6,3.6,31,0.00,,---,0.00,VWS V14.01,2013-08-31 15:05:00,
2013-08-31 11:10:00,76.1,43.3,17.72,WSW,243,0.0,0.0,31,0.00,,---,0.00,VWS V14.01,2013-08-31 15:10:00,
2013-08-31 11:15:00,76.1,43.3,17.72,SW,223,0.0,0.0,31,0.00,,---,0.00,VWS V14.01,2013-08-31 15:15:00,
2013-08-31 11:20:00,75.9,43.1,17.72,SW,225,0.0,0.0,31,0.00,,---,0.00,VWS V14.01,2013-08-31 15:20:00,
2013-08-31 11:25:00,76.3,43.5,17.72,NNW,340,0.0,0.0,31,0.00,,---,0.00,VWS V14.01,2013-08-31 15:25:00,
2013-08-31 11:30:00,76.1,43.3,17.72,NE,44,2.7,2.7,31,0.00,,---,0.00,VWS V14.01,2013-08-31 15:30:00,
2013-08-31 11:35:00,76.6,43.8,17.72,SW,222,0.0,2.7,31,0.00,,---,0.00,VWS V14.01,2013-08-31 15:35:00,
2013-08-31 11:40:00,76.6,43.8,17.72,SW,230,2.2,2.2,31,0.00,,---,0.00,VWS V14.01,2013-08-31 15:40:00,
2013-08-31 11:45:00,77.0,44.1,17.72,WSW,239,0.0,0.0,31,0.00,,---,0.00,VWS V14.01,2013-08-31 15:45:00,
2013-08-31 11:50:00,76.6,43.8,17.72,NE,34,2.2,4.9,31,0.00,,---,0.00,VWS V14.01,2013-08-31 15:50:00,
2013-08-31 11:55:00,76.6,43.8,17.72,WSW,249,2.2,3.1,31,0.00,,---,0.00,VWS V14.01,2013-08-31 15:55:00,
2013-08-31 12:00:00,76.8,43.9,17.72,NNW,340,0.0,0.0,31,0.00,,---,0.00,VWS V14.01,2013-08-31 16:00:00,
2013-08-31 12:05:00,77.5,43.7,17.72,NNW,334,0.0,0.0,30,0.00,,---,0.00,VWS V14.01,2013-08-31 16:05:00,
2013-08-31 12:10:00,77.7,43.8,17.72,WNW,288,0.0,3.1,30,0.00,,---,0.00,VWS V14.01,2013-08-31 16:10:00,
2013-08-31 12:15:00,78.1,44.2,17.72,WSW,244,3.6,4.0,30,0.00,,---,0.00,VWS V14.01,2013-08-31 16:15:00,
2013-08-31 12:20:00,77.7,43.8,17.72,NNE,16,2.7,2.7,30,0.00,,---,0.00,VWS V14.01,2013-08-31 16:20:00,
2013-08-31 12:25:00,77.5,43.7,17.72,North,8,0.0,0.0,30,0.00,,---,0.00,VWS V14.01,2013-08-31 16:25:00,
2013-08-31 12:30:00,77.5,43.7,17.72,SSE,165,0.0,3.6,30,0.00,,---,0.00,VWS V14.01,2013-08-31 16:30:00,
2013-08-31 12:35:00,77.4,43.5,17.72,North,2,0.0,3.1,30,0.00,,---,0.00,VWS V14.01,2013-08-31 16:35:00,
2013-08-31 12:40:00,77.0,43.2,17.72,South,177,2.2,3.1,30,0.00,,---,0.00,VWS V14.01,2013-08-31 16:40:00,
2013-08-31 12:45:00,77.2,43.4,17.72,WNW,286,0.0,0.0,30,0.00,,---,0.00,VWS V14.01,2013-08-31 16:45:00,
2013-08-31 12:50:00,77.2,43.4,17.72,WNW,302,0.0,0.0,30,0.00,,---,0.00,VWS V14.01,2013-08-31 16:50:00,
2013-08-31 12:55:00,77.2,43.4,17.72,NNE,25,2.7,3.6,30,0.00,,---,0.00,VWS V14.01,2013-08-31 16:55:00,
2013-08-31 13:00:00,77.4,43.5,17.72,NNW,340,0.0,5.8,30,0.00,,---,0.00,VWS V14.01,2013-08-31 17:00:00,
2013-08-31 13:05:00,77.4,43.5,17.72,North,2,0.0,0.0,30,0.00,,---,0.00,VWS V14.01,2013-08-31 17:05:00,
2013-08-31 13:10:00,77.7,43.8,17.72,West,266,0.0,0.0,30,0.00,,---,0.00,VWS V14.01,2013-08-31 17:10:00,
2013-08-31 13:15:00,77.9,44.0,17.72,North,4,0.0,0.0,30,0.00,,---,0.00,VWS V14.01,2013-08-31 17:15:00,
2013-08-31 13:20:00,77.4,43.5,17.72,West,272,0.0,0.0,30,0.00,,---,0.00,VWS V14.01,2013-08-31 17:20:00,
2013-08-31 13:25:00,77.7,43.8,17.72,NW,319,0.0,3.6,30,0.00,,---,0.00,VWS V14.01,2013-08-31 17:25:00,
2013-08-31 13:30:00,78.8,44.8,17.72,WNW,299,0.0,3.1,30,0.00,,---,0.00,VWS V14.01,2013-08-31 17:30:00,
2013-08-31 13:35:00,79.5,45.4,17.72,NE,42,3.6,3.6,30,0.00,,---,0.00,VWS V14.01,2013-08-31 17:35:00,
2013-08-31 13:40:00,80.8,46.5,17.72,SSE,165,2.2,2.2,30,0.00,,---,0.00,VWS V14.01,2013-08-31 17:40:00,
2013-08-31 13:45:00,81.1,46.8,17.72,West,261,2.2,2.7,30,0.00,,---,0.00,VWS V14.01,2013-08-31 17:45:00,
2013-08-31 13:50:00,79.7,45.6,17.72,West,278,0.0,0.0,30,0.00,,---,0.00,VWS V14.01,2013-08-31 17:50:00,
2013-08-31 13:55:00,79.5,45.4,17.72,North,7,0.0,4.0,30,0.00,,---,0.00,VWS V14.01,2013-08-31 17:55:00,
2013-08-31 14:00:00,79.7,45.6,17.72,ENE,57,0.0,0.0,30,0.00,,---,0.00,VWS V14.01,2013-08-31 18:00:00,
2013-08-31 14:05:00,79.3,45.2,17.72,North,0,0.0,2.7,30,0.00,,---,0.00,VWS V14.01,2013-08-31 18:05:00,
2013-08-31 14:10:00,78.6,44.6,17.72,West,274,4.0,4.0,30,0.00,,---,0.00,VWS V14.01,2013-08-31 18:10:00,
2013-08-31 14:15:00,78.3,44.3,17.72,North,5,0.0,0.0,30,0.00,,---,0.00,VWS V14.01,2013-08-31 18:15:00,
2013-08-31 14:20:00,78.6,44.6,17.72,North,5,0.0,0.0,30,0.00,,---,0.00,VWS V14.01,2013-08-31 18:20:00,
2013-08-31 14:25:00,79.0,44.9,17.72,ESE,113,0.0,0.0,30,0.00,,---,0.00,VWS V14.01,2013-08-31 18:25:00,
2013-08-31 14:30:00,79.2,45.1,17.72,ENE,69,0.0,0.0,30,0.00,,---,0.00,VWS V14.01,2013-08-31 18:30:00,
2013-08-31 14:35:00,79.9,45.7,17.72,WNW,292,0.0,0.0,30,0.00,,---,0.00,VWS V14.01,2013-08-31 18:35:00,
2013-08-31 14:40:00,80.8,46.5,17.72,NNW,348,0.0,0.0,30,0.00,,---,0.00,VWS V14.01,2013-08-31 18:40:00,
2013-08-31 14:45:00,81.0,46.6,17.72,South,181,2.7,2.7,30,0.00,,---,0.00,VWS V14.01,2013-08-31 18:45:00,
2013-08-31 14:50:00,81.3,47.0,17.72,WSW,254,0.0,0.0,30,0.00,,---,0.00,VWS V14.01,2013-08-31 18:50:00,
2013-08-31 14:55:00,80.2,46.0,17.72,NNE,22,0.0,3.6,30,0.00,,---,0.00,VWS V14.01,2013-08-31 18:55:00,
2013-08-31 15:00:00,81.1,46.8,17.72,SSW,202,0.0,0.0,30,0.00,,---,0.00,VWS V14.01,2013-08-31 19:00:00,
2013-08-31 15:05:00,80.8,46.5,17.72,NW,321,0.0,0.0,30,0.00,,---,0.00,VWS V14.01,2013-08-31 19:05:00,
2013-08-31 15:10:00,80.4,46.2,17.72,NW,313,4.0,6.3,30,0.00,,---,0.00,VWS V14.01,2013-08-31 19:10:00,
2013-08-31 15:15:00,80.6,46.3,17.72,NNE,25,0.0,0.0,30,0.00,,---,0.00,VWS V14.01,2013-08-31 19:15:00,
2013-08-31 15:20:00,82.4,47.0,17.72,WNW,303,0.0,0.0,29,0.00,,---,0.00,VWS V14.01,2013-08-31 19:20:00,
2013-08-31 15:25:00,82.9,47.5,17.72,SSW,210,0.0,0.0,29,0.00,,---,0.00,VWS V14.01,2013-08-31 19:25:00,
2013-08-31 15:30:00,82.8,47.3,17.72,NW,312,3.6,3.6,29,0.00,,---,0.00,VWS V14.01,2013-08-31 19:30:00,
2013-08-31 15:35:00,82.8,47.3,17.72,NNE,32,0.0,0.0,29,0.00,,---,0.00,VWS V14.01,2013-08-31 19:35:00,
2013-08-31 15:40:00,84.4,48.7,17.72,ENE,62,2.7,2.7,29,0.00,,---,0.00,VWS V14.01,2013-08-31 19:40:00,
2013-08-31 15:45:00,84.4,48.7,17.72,West,264,3.1,3.1,29,0.00,,---,0.00,VWS V14.01,2013-08-31 19:45:00,
2013-08-31 15:50:00,84.6,48.8,17.72,West,268,0.0,0.0,29,0.00,,---,0.00,VWS V14.01,2013-08-31 19:50:00,
2013-08-31 15:55:00,83.8,48.2,17.72,SSW,203,0.0,0.0,29,0.00,,---,0.00,VWS V14.01,2013-08-31 19:55:00,
2013-08-31 16:00:00,82.6,47.1,17.72,NNW,343,0.0,0.0,29,0.00,,---,0.00,VWS V14.01,2013-08-31 20:00:00,
2013-08-31 16:05:00,80.2,46.0,17.72,NNE,30,0.0,3.1,30,0.00,,---,0.00,VWS V14.01,2013-08-31 20:05:00,
2013-08-31 16:10:00,81.1,46.8,17.72,WSW,241,2.7,2.7,30,0.00,,---,0.00,VWS V14.01,2013-08-31 20:10:00,
2013-08-31 16:15:00,82.0,47.6,17.72,SSW,196,0.0,0.0,30,0.00,,---,0.00,VWS V14.01,2013-08-31 20:15:00,
2013-08-31 16:20:00,81.5,47.1,17.72,NNE,33,0.0,0.0,30,0.00,,---,0.00,VWS V14.01,2013-08-31 20:20:00,
2013-08-31 16:25:00,82.2,47.7,17.72,NNE,19,0.0,0.0,30,0.00,,---,0.00,VWS V14.01,2013-08-31 20:25:00,
2013-08-31 16:30:00,81.1,46.8,17.72,North,0,0.0,2.7,30,0.00,,---,0.00,VWS V14.01,2013-08-31 20:30:00,
2013-08-31 16:35:00,81.3,47.0,17.72,SW,225,0.0,3.1,30,0.00,,---,0.00,VWS V14.01,2013-08-31 20:35:00,
2013-08-31 16:40:00,81.7,47.3,17.72,NE,35,0.0,0.0,30,0.00,,---,0.00,VWS V14.01,2013-08-31 20:40:00,
2013-08-31 16:45:00,79.7,45.6,17.72,SW,236,4.0,5.8,30,0.00,,---,0.00,VWS V14.01,2013-08-31 20:45:00,
2013-08-31 16:50:00,79.9,45.7,17.72,NE,48,0.0,0.0,30,0.00,,---,0.00,VWS V14.01,2013-08-31 20:50:00,
2013-08-31 16:55:00,80.1,45.9,17.72,NE,43,0.0,0.0,30,0.00,,---,0.00,VWS V14.01,2013-08-31 20:55:00,
2013-08-31 17:00:00,81.5,47.1,17.72,North,0,0.0,0.0,30,0.00,,---,0.00,VWS V14.01,2013-08-31 21:00:00,
2013-08-31 17:05:00,82.0,47.6,17.72,WSW,242,0.0,0.0,30,0.00,,---,0.00,VWS V14.01,2013-08-31 21:05:00,
2013-08-31 17:10:00,84.4,48.7,17.72,SSE,151,0.0,0.0,29,0.00,,---,0.00,VWS V14.01,2013-08-31 21:10:00,
2013-08-31 17:15:00,89.1,51.8,17.72,West,273,0.0,0.0,28,0.00,,---,0.00,VWS V14.01,2013-08-31 21:15:00,
2013-08-31 17:20:00,86.5,49.6,17.72,NNW,328,0.0,0.0,28,0.00,,---,0.00,VWS V14.01,2013-08-31 21:20:00,
2013-08-31 17:25:00,81.9,47.4,17.72,NNE,29,0.0,0.0,30,0.00,,---,0.00,VWS V14.01,2013-08-31 21:25:00,
2013-08-31 17:30:00,79.3,45.2,17.72,WSW,255,0.0,0.0,30,0.00,,---,0.00,VWS V14.01,2013-08-31 21:30:00,
2013-08-31 17:35:00,78.6,44.6,17.72,WSW,255,0.0,0.0,30,0.00,,---,0.00,VWS V14.01,2013-08-31 21:35:00,
2013-08-31 17:40:00,77.9,44.0,17.72,WSW,255,0.0,0.0,30,0.00,,---,0.00,VWS V14.01,2013-08-31 21:40:00,
2013-08-31 17:45:00,77.5,43.7,17.72,NE,39,0.0,0.0,30,0.00,,---,0.00,VWS V14.01,2013-08-31 21:45:00,
2013-08-31 17:50:00,77.2,43.4,17.72,NW,313,0.0,0.0,30,0.00,,---,0.00,VWS V14.01,2013-08-31 21:50:00,
2013-08-31 17:55:00,76.8,43.9,17.72,NNE,30,0.0,0.0,31,0.00,,---,0.00,VWS V14.01,2013-08-31 21:55:00,
2013-08-31 18:00:00,76.5,43.6,17.72,NNE,30,0.0,0.0,31,0.00,,---,0.00,VWS V14.01,2013-08-31 22:00:00,
2013-08-31 18:05:00,76.6,43.8,17.72,SSW,202,0.0,0.0,31,0.00,,---,0.00,VWS V14.01,2013-08-31 22:05:00,
2013-08-31 18:10:00,77.4,43.5,17.72,North,3,0.0,0.0,30,0.00,,---,0.00,VWS V14.01,2013-08-31 22:10:00,
2013-08-31 18:15:00,77.5,43.7,17.72,North,3,0.0,0.0,30,0.00,,---,0.00,VWS V14.01,2013-08-31 22:15:00,
2013-08-31 18:20:00,77.2,43.4,17.72,SW,225,0.0,0.0,30,0.00,,---,0.00,VWS V14.01,2013-08-31 22:20:00,
2013-08-31 18:25:00,76.8,43.9,17.72,South,181,0.0,0.0,31,0.00,,---,0.00,VWS V14.01,2013-08-31 22:25:00,
2013-08-31 18:30:00,76.5,43.6,17.72,WSW,242,0.0,0.0,31,0.00,,---,0.00,VWS V14.01,2013-08-31 22:30:00,
2013-08-31 18:35:00,75.7,43.0,17.72,WNW,285,0.0,0.0,31,0.00,,---,0.00,VWS V14.01,2013-08-31 22:35:00,
2013-08-31 18:40:00,75.2,42.5,17.72,North,353,0.0,0.0,31,0.00,,---,0.00,VWS V14.01,2013-08-31 22:40:00,
2013-08-31 18:45:00,74.8,42.2,17.72,SSW,212,0.0,0.0,31,0.00,,---,0.00,VWS V14.01,2013-08-31 22:45:00,
2013-08-31 18:50:00,74.3,41.7,17.72,SSW,212,0.0,0.0,31,0.00,,---,0.00,VWS V14.01,2013-08-31 22:50:00,
2013-08-31 18:55:00,73.9,41.4,17.72,WNW,294,0.0,0.0,31,0.00,,---,0.00,VWS V14.01,2013-08-31 22:55:00,
2013-08-31 19:00:00,73.8,41.3,17.72,NW,319,0.0,0.0,31,0.00,,---,0.00,VWS V14.01,2013-08-31 23:00:00,
2013-08-31 19:05:00,73.6,41.1,17.72,SSE,167,0.0,0.0,31,0.00,,---,0.00,VWS V14.01,2013-08-31 23:05:00,
2013-08-31 19:10:00,73.4,41.0,17.72,South,172,0.0,0.0,31,0.00,,---,0.00,VWS V14.01,2013-08-31 23:10:00,
2013-08-31 19:15:00,73.4,41.0,17.72,South,172,0.0,0.0,31,0.00,,---,0.00,VWS V14.01,2013-08-31 23:15:00,
2013-08-31 19:20:00,73.0,41.5,17.72,SSW,211,0.0,0.0,32,0.00,,---,0.00,VWS V14.01,2013-08-31 23:20:00,
2013-08-31 19:25:00,72.9,41.3,17.72,SSW,211,0.0,0.0,32,0.00,,---,0.00,VWS V14.01,2013-08-31 23:25:00,
2013-08-31 19:30:00,72.3,40.8,17.72,SSW,211,0.0,0.0,32,0.00,,---,0.00,VWS V14.01,2013-08-31 23:30:00,
2013-08-31 19:35:00,72.0,40.5,17.72,SSW,195,0.0,0.0,32,0.00,,---,0.00,VWS V14.01,2013-08-31 23:35:00,
2013-08-31 19:40:00,71.6,40.2,17.72,SSW,195,0.0,0.0,32,0.00,,---,0.00,VWS V14.01,2013-08-31 23:40:00,
2013-08-31 19:45:00,71.4,40.0,17.72,SSW,195,0.0,0.0,32,0.00,,---,0.00,VWS V14.01,2013-08-31 23:45:00,
2013-08-31 19:50:00,71.1,39.7,17.72,SSW,195,0.0,0.0,32,0.00,,---,0.00,VWS V14.01,2013-08-31 23:50:00,
2013-08-31 19:55:00,70.9,39.6,17.72,SSW,195,0.0,0.0,32,0.00,,---,0.00,VWS V14.01,2013-08-31 23:55:00,
2013-08-31 20:00:00,70.7,39.4,17.72,SSW,195,0.0,0.0,32,0.00,,---,0.00,VWS V14.01,2013-09-01 00:00:00,
2013-08-31 20:05:00,70.7,39.4,17.72,SSW,195,0.0,0.0,32,0.00,,---,0.00,VWS V14.01,2013-09-01 00:05:00,
2013-08-31 20:10:00,70.7,39.4,17.72,SSW,195,0.0,0.0,32,0.00,,---,0.00,VWS V14.01,2013-09-01 00:10:00,
2013-08-31 20:15:00,70.7,39.4,17.72,NNE,12,0.0,0.0,32,0.00,,---,0.00,VWS V14.01,2013-09-01 00:15:00,
2013-08-31 20:20:00,70.5,39.3,17.72,NNE,12,0.0,0.0,32,0.00,,---,0.00,VWS V14.01,2013-09-01 00:20:00,
2013-08-31 20:25:00,70.5,39.3,17.72,NNE,12,0.0,0.0,32,0.00,,---,0.00,VWS V14.01,2013-09-01 00:25:00,
2013-08-31 20:30:00,70.3,39.1,17.72,NNE,12,0.0,0.0,32,0.00,,---,0.00,VWS V14.01,2013-09-01 00:30:00,
2013-08-31 20:35:00,70.3,39.1,17.72,NNE,12,0.0,0.0,32,0.00,,---,0.00,VWS V14.01,2013-09-01 00:35:00,
2013-08-31 20:40:00,70.3,39.1,17.72,NNE,12,0.0,0.0,32,0.00,,---,0.00,VWS V14.01,2013-09-01 00:40:00,
2013-08-31 20:45:00,70.3,39.1,17.72,NNE,12,0.0,0.0,32,0.00,,---,0.00,VWS V14.01,2013-09-01 00:45:00,
2013-08-31 20:50:00,70.3,39.1,17.72,NNE,23,2.2,2.2,32,0.00,,---,0.00,VWS V14.01,2013-09-01 00:50:00,
2013-08-31 20:55:00,70.3,39.1,17.72,ENE,63,0.0,0.0,32,0.00,,---,0.00,VWS V14.01,2013-09-01 00:55:00,
2013-08-31 21:00:00,70.2,39.0,17.72,NNE,30,0.0,0.0,32,0.00,,---,0.00,VWS V14.01,2013-09-01 01:00:00,
2013-08-31 21:05:00,70.2,39.0,17.72,NW,323,3.6,3.6,32,0.00,,---,0.00,VWS V14.01,2013-09-01 01:05:00,
2013-08-31 21:10:00,70.0,38.8,17.72,WNW,293,0.0,0.0,32,0.00,,---,0.00,VWS V14.01,2013-09-01 01:10:00,
2013-08-31 21:15:00,69.8,38.6,17.72,NW,324,0.0,0.0,32,0.00,,---,0.00,VWS V14.01,2013-09-01 01:15:00,
2013-08-31 21:20:00,69.4,39.1,17.72,NNE,27,0.0,0.0,33,0.00,,---,0.00,VWS V14.01,2013-09-01 01:20:00,
2013-08-31 21:25:00,69.4,39.1,17.72,North,353,0.0,0.0,33,0.00,,---,0.00,VWS V14.01,2013-09-01 01:25:00,
2013-08-31 21:30:00,69.3,39.0,17.72,North,353,0.0,0.0,33,0.00,,---,0.00,VWS V14.01,2013-09-01 01:30:00,
2013-08-31 21:35:00,69.1,38.8,17.72,North,353,0.0,0.0,33,0.00,,---,0.00,VWS V14.01,2013-09-01 01:35:00,
2013-08-31 21:40:00,68.9,38.6,17.72,North,8,0.0,0.0,33,0.00,,---,0.00,VWS V14.01,2013-09-01 01:40:00,
2013-08-31 21:45:00,68.7,38.5,17.72,North,8,0.0,0.0,33,0.00,,---,0.00,VWS V14.01,2013-09-01 01:45:00,
2013-08-31 21:50:00,68.5,38.3,17.72,North,8,0.0,0.0,33,0.00,,---,0.00,VWS V14.01,2013-09-01 01:50:00,
2013-08-31 21:55:00,68.4,38.2,17.72,North,8,0.0,0.0,33,0.00,,---,0.00,VWS V14.01,2013-09-01 01:55:00,
2013-08-31 22:00:00,68.4,38.2,17.72,North,8,0.0,0.0,33,0.00,,---,0.00,VWS V14.01,2013-09-01 02:00:00,
2013-08-31 22:05:00,68.2,38.0,17.72,North,8,0.0,0.0,33,0.00,,---,0.00,VWS V14.01,2013-09-01 02:05:00,
2013-08-31 22:10:00,68.0,37.8,17.72,North,8,0.0,0.0,33,0.00,,---,0.00,VWS V14.01,2013-09-01 02:10:00,
2013-08-31 22:15:00,68.0,37.8,17.72,North,8,0.0,0.0,33,0.00,,---,0.00,VWS V14.01,2013-09-01 02:15:00,
2013-08-31 22:20:00,67.8,37.7,17.72,North,8,0.0,0.0,33,0.00,,---,0.00,VWS V14.01,2013-09-01 02:20:00,
2013-08-31 22:24:00,67.8,37.7,17.72,North,8,0.0,0.0,33,0.00,,---,0.00,VWS V14.01,2013-09-01 02:24:00,
2013-08-31 22:29:00,67.6,37.5,17.72,North,8,0.0,0.0,33,0.00,,---,0.00,VWS V14.01,2013-09-01 02:29:00,
2013-08-31 22:34:00,67.6,37.5,17.72,North,8,0.0,0.0,33,0.00,,---,0.00,VWS V14.01,2013-09-01 02:34:00,
2013-08-31 22:39:00,67.6,37.5,17.72,North,8,0.0,0.0,33,0.00,,---,0.00,VWS V14.01,2013-09-01 02:39:00,
2013-08-31 22:44:00,67.5,37.4,17.72,North,8,0.0,0.0,33,0.00,,---,0.00,VWS V14.01,2013-09-01 02:44:00,
2013-08-31 22:49:00,67.5,37.4,17.72,North,8,0.0,0.0,33,0.00,,---,0.00,VWS V14.01,2013-09-01 02:49:00,
2013-08-31 22:54:00,67.5,37.4,17.72,North,8,0.0,0.0,33,0.00,,---,0.00,VWS V14.01,2013-09-01 02:54:00,
2013-08-31 22:59:00,67.3,38.0,17.72,North,8,0.0,0.0,34,0.00,,---,0.00,VWS V14.01,2013-09-01 02:59:00,
2013-08-31 23:04:00,67.3,38.0,17.72,North,8,0.0,0.0,34,0.00,,---,0.00,VWS V14.01,2013-09-01 03:04:00,
2013-08-31 23:09:00,67.3,38.0,17.72,North,8,0.0,0.0,34,0.00,,---,0.00,VWS V14.01,2013-09-01 03:09:00,
2013-08-31 23:14:00,67.3,38.0,17.72,North,8,0.0,0.0,34,0.00,,---,0.00,VWS V14.01,2013-09-01 03:14:00,
2013-08-31 23:19:00,67.3,38.0,17.72,North,8,0.0,0.0,34,0.00,,---,0.00,VWS V14.01,2013-09-01 03:19:00,
2013-08-31 23:24:00,67.1,37.8,17.72,North,8,0.0,0.0,34,0.00,,---,0.00,VWS V14.01,2013-09-01 03:24:00,
2013-08-31 23:29:00,67.1,37.8,17.72,North,8,0.0,0.0,34,0.00,,---,0.00,VWS V14.01,2013-09-01 03:29:00,
2013-08-31 23:34:00,67.1,37.8,17.72,North,8,0.0,0.0,34,0.00,,---,0.00,VWS V14.01,2013-09-01 03:34:00,
2013-08-31 23:39:00,67.1,37.8,17.72,North,8,0.0,0.0,34,0.00,,---,0.00,VWS V14.01,2013-09-01 03:39:00,
2013-08-31 23:44:00,66.9,37.7,17.72,North,8,0.0,0.0,34,0.00,,---,0.00,VWS V14.01,2013-09-01 03:44:00,
2013-08-31 23:49:00,66.9,37.7,17.72,North,8,0.0,0.0,34,0.00,,---,0.00,VWS V14.01,2013-09-01 03:49:00,
2013-08-31 23:54:00,67.1,37.8,17.72,North,8,0.0,0.0,34,0.00,,---,0.00,VWS V14.01,2013-09-01 03:54:00,
2013-08-31 23:59:00,67.1,37.8,17.72,North,8,0.0,0.0,34,0.00,,---,0.31,VWS V14.01,2013-09-01 03:59:00,